Total_Precipitation_Accumulation
1.97 2.15 2.29 2.50 2.81 3.07 3.28 3.54 3.80 4.19 4.49 4.92 5.28 5.46 5.65 5.86 5.94 5.92 5.91 5.88 5.82 5.97 6.07 5.78 5.88 5.79 5.67 5.46 5.44 5.40 5.19 4.93 4.91 4.80 4.36 3.66 3.22 3.17 3.08 3.06 3.28 3.25 3.18
1.93 2.26 2.63 3.04 3.30 3.51 3.61 3.88 4.23 4.54 4.72 5.12 5.65 6.16 6.40 6.48 6.50 6.53 6.69 6.70 6.68 6.86 6.92 6.93 6.69 6.51 6.29 5.80 5.45 5.35 5.14 4.77 4.87 4.93 4.94 4.28 3.78 3.20 2.67 2.72 2.78 2.90 3.10
2.10 2.40 2.89 3.26 3.37 3.50 3.64 3.85 4.40 4.90 5.36 5.80 6.38 6.88 7.24 7.25 7.10 6.78 6.90 7.04 6.84 6.89 7.18 7.29 7.06 6.72 6.15 5.59 5.49 5.46 5.29 5.04 4.93 4.82 5.12 4.64 4.10 3.55 2.88 2.53 2.47 2.60 2.69
2.07 2.43 2.73 3.04 3.22 3.36 3.67 3.97 4.41 5.09 5.63 5.92 6.56 7.26 7.50 7.75 7.79 7.60 7.32 7.13 6.86 6.68 6.64 6.60 6.26 5.90 5.53 5.26 5.13 5.23 5.13 5.10 4.87 4.76 4.47 4.26 3.97 3.68 3.20 2.66 2.39 2.46 2.48
1.88 2.25 2.49 2.81 3.24 3.36 3.48 3.71 4.28 4.92 5.66 6.31 6.83 7.45 7.91 8.18 8.11 7.70 7.22 6.70 6.36 5.89 5.45 5.18 5.03 4.99 4.83 4.64 4.54 4.65 4.58 4.32 4.19 4.21 4.24 4.21 3.92 3.48 3.20 2.90 2.65 2.56 2.32
1.78 1.95 2.25 2.56 2.90 2.97 3.21 3.51 3.97 4.69 5.41 6.01 6.61 7.15 7.55 7.68 7.39 6.86 6.33 5.95 5.58 5.04 4.50 4.28 4.19 4.12 3.95 3.77 3.67 3.71 3.74 3.77 3.82 3.92 3.94 3.93 3.86 3.54 3.48 3.24 2.93 2.76 2.53
1.80 2.03 2.25 2.56 2.72 2.78 3.03 3.40 3.96 4.59 4.99 5.45 5.96 6.31 6.52 6.66 6.64 6.36 5.90 5.52 5.00 4.52 4.06 3.66 3.52 3.29 3.14 3.09 3.16 3.16 3.12 3.23 3.34 3.46 3.57 3.58 3.47 3.31 3.37 3.46 3.18 2.88 2.64
1.96 2.29 2.38 2.56 2.74 2.77 2.97 3.35 3.83 4.22 4.41 4.60 5.00 5.34 5.50 5.55 5.43 5.29 4.90 4.59 4.21 3.90 3.66 3.25 2.92 2.69 2.55 2.48 2.70 2.75 2.75 2.83 2.94 3.00 3.25 3.20 3.07 3.15 3.22 3.37 3.53 3.43 3.01
2.01 2.30 2.44 2.55 2.67 2.71 2.89 3.09 3.38 3.56 3.74 3.89 4.10 4.33 4.38 4.30 4.17 4.01 3.76 3.56 3.37 3.02 2.90 2.70 2.54 2.42 2.36 2.38 2.49 2.47 2.54 2.70 2.77 2.78 2.90 3.00 2.95 3.01 3.02 3.12 3.29 3.43 3.22
1.97 2.18 2.28 2.40 2.47 2.47 2.57 2.66 2.88 3.04 3.22 3.31 3.34 3.27 3.32 3.27 3.12 2.93 2.81 2.64 2.46 2.37 2.36 2.30 2.31 2.27 2.21 2.28 2.38 2.27 2.31 2.45 2.43 2.43 2.55 2.63 2.63 2.77 2.78 2.87 3.00 3.13 3.10
1.87 1.96 2.06 2.08 2.10 2.11 2.18 2.34 2.52 2.71 2.81 2.83 2.90 2.85 2.74 2.55 2.44 2.30 2.19 2.12 2.06 2.06 2.04 2.06 2.10 2.14 2.14 2.20 2.18 2.01 2.04 2.10 2.27 2.38 2.43 2.46 2.53 2.63 2.58 2.59 2.63 2.75 2.94
1.85 1.76 1.78 1.80 1.84 1.93 2.04 2.18 2.22 2.32 2.38 2.48 2.55 2.59 2.53 2.36 2.16 2.05 1.96 1.95 1.95 1.93 1.95 1.95 1.92 1.96 2.11 2.22 2.15 1.98 1.93 2.05 2.20 2.33 2.46 2.40 2.35 2.38 2.42 2.48 2.47 2.49 2.66
1.89 1.81 1.80 1.76 1.80 2.00 2.07 2.02 2.10 2.16 2.24 2.39 2.42 2.44 2.49 2.35 2.13 2.04 2.05 2.03 1.97 1.94 1.90 1.86 1.86 1.91 1.99 2.05 1.97 1.90 1.87 1.91 2.00 2.12 2.18 2.20 2.21 2.12 2.10 2.14 2.21 2.22 2.25
1.99 2.04 2.09 2.03 1.95 2.01 2.20 2.19 2.27 2.33 2.33 2.32 2.26 2.10 2.03 2.03 2.04 2.00 1.97 1.91 1.85 1.87 1.89 1.89 1.89 1.87 1.79 1.68 1.63 1.64 1.67 1.72 1.72 1.78 1.81 1.89 2.02 2.03 2.01 1.93 2.03 2.12 2.28
2.19 2.17 2.09 2.09 2.00 1.98 2.16 2.31 2.35 2.31 2.53 2.56 2.42 2.24 2.04 2.02 2.03 1.98 1.91 1.83 1.78 1.67 1.75 1.81 1.74 1.62 1.47 1.30 1.34 1.42 1.45 1.56 1.57 1.58 1.51 1.49 1.71 1.87 1.81 1.63 1.80 2.05 2.23
2.36 2.32 2.31 2.29 2.22 2.11 2.20 2.40 2.42 2.37 2.50 2.49 2.55 2.57 2.47 2.43 2.29 2.09 1.99 1.97 1.94 1.88 1.79 1.76 1.69 1.54 1.25 1.27 1.25 1.36 1.50 1.60 1.56 1.57 1.55 1.43 1.46 1.54 1.50 1.42 1.56 1.84 1.94
2.63 2.59 2.63 2.57 2.57 2.54 2.47 2.49 2.43 2.38 2.42 2.53 2.60 2.61 2.57 2.48 2.38 2.12 2.02 2.07 2.03 1.97 1.87 1.73 1.68 1.63 1.54 1.41 1.19 1.22 1.37 1.47 1.47 1.48 1.52 1.33 1.24 1.45 1.47 1.48 1.45 1.50 1.51
2.61 2.65 2.78 2.75 2.74 2.64 2.59 2.51 2.49 2.54 2.63 2.69 2.67 2.57 2.42 2.39 2.31 2.24 2.19 2.13 2.05 1.98 1.89 1.78 1.65 1.54 1.30 1.17 1.03 1.07 1.18 1.40 1.42 1.38 1.43 1.49 1.40 1.33 1.40 1.40 1.39 1.41 1.44
2.68 2.65 2.64 2.64 2.69 2.62 2.54 2.48 2.47 2.52 2.57 2.57 2.43 2.33 2.33 2.35 2.19 2.19 2.17 2.13 2.04 1.92 1.81 1.70 1.62 1.53 1.32 1.12 0.99 1.06 1.19 1.38 1.39 1.34 1.32 1.40 1.41 1.40 1.36 1.40 1.51 1.55 1.52
2.44 2.36 2.21 2.17 2.36 2.51 2.50 2.40 2.33 2.33 2.31 2.15 1.96 1.85 1.94 2.03 1.91 1.81 1.80 1.82 1.86 1.86 1.75 1.60 1.55 1.49 1.44 1.31 1.13 1.12 1.17 1.31 1.36 1.43 1.40 1.34 1.34 1.37 1.31 1.43 1.63 1.62 1.56
1.95 1.90 1.87 1.95 2.09 2.15 2.20 2.23 2.14 2.17 2.06 1.86 1.76 1.76 1.72 1.74 1.70 1.72 1.73 1.67 1.63 1.69 1.72 1.68 1.57 1.46 1.34 1.24 1.10 1.07 0.98 1.10 1.25 1.33 1.41 1.34 1.26 1.24 1.24 1.38 1.49 1.50 1.48
1.64 1.59 1.70 1.81 1.86 1.81 1.81 1.92 1.93 1.94 1.83 1.72 1.65 1.71 1.69 1.57 1.65 1.83 1.78 1.71 1.72 1.71 1.68 1.68 1.58 1.38 1.24 1.10 0.99 0.98 0.99 1.05 1.19 1.32 1.35 1.29 1.24 1.22 1.27 1.29 1.36 1.38 1.46
1.38 1.45 1.49 1.63 1.74 1.74 1.77 1.82 1.79 1.70 1.69 1.73 1.67 1.59 1.53 1.62 1.70 1.82 1.78 1.69 1.65 1.54 1.42 1.40 1.36 1.24 1.10 0.97 0.90 0.89 0.95 1.05 1.11 1.18 1.25 1.22 1.23 1.23 1.34 1.38 1.40 1.49 1.68
1.27 1.34 1.40 1.46 1.60 1.58 1.59 1.71 1.65 1.60 1.71 1.80 1.72 1.58 1.48 1.48 1.55 1.62 1.64 1.55 1.47 1.39 1.29 1.22 1.17 1.12 1.09 0.98 0.89 0.89 0.91 0.98 1.05 1.10 1.16 1.24 1.30 1.33 1.43 1.56 1.66 1.69 1.77
1.40 1.39 1.42 1.42 1.41 1.41 1.42 1.43 1.46 1.56 1.74 1.70 1.55 1.43 1.31 1.28 1.33 1.34 1.34 1.32 1.22 1.17 1.14 1.04 0.96 1.02 1.02 0.93 0.93 0.91 0.90 0.94 0.98 1.01 1.17 1.39 1.44 1.53 1.61 1.64 1.69 1.74 1.68
1.33 1.39 1.36 1.26 1.26 1.33 1.37 1.29 1.23 1.37 1.62 1.61 1.37 1.22 1.14 1.10 1.03 1.03 1.05 1.04 1.02 1.00 0.93 0.93 0.88 0.82 0.80 0.79 0.80 0.82 0.87 0.93 1.00 1.05 1.23 1.35 1.41 1.51 1.57 1.59 1.59 1.63 1.65